FDX1422 KMEM-KSAN

Flight info

Callsign FDX1422
Flight time N/A
Altitude 30000
Route CHLDR5 ANSWA MLC TXO ONM MOHAK J18 HOGGZ LUCKI1
Aircraft MD11/H-SDE1E2E3FGHIJ2J3J4J5M1RWXY/LB1D1

Departure

Time N/A
Airport Memphis International Airport (KMEM)

Arrival

Time 2026-04-23 14:24
Airport San Diego International Airport (KSAN)
Time Latitude Longitude Altitude Speed Heading
2026-04-23 13:55 32.77767 -114.16220 29953 ft 405 kts 272°
2026-04-23 13:55 32.77933 -114.19564 29952 ft 405 kts 271°
2026-04-23 13:56 32.78227 -114.26202 29950 ft 405 kts 271°
2026-04-23 13:56 32.78495 -114.32883 29948 ft 405 kts 271°
2026-04-23 13:57 32.79019 -114.39538 29952 ft 407 kts 279°
2026-04-23 13:57 32.80625 -114.46016 29952 ft 410 kts 284°
2026-04-23 13:58 32.82461 -114.52430 29953 ft 410 kts 284°
2026-04-23 13:58 32.84262 -114.58864 29948 ft 410 kts 284°
2026-04-23 13:59 32.86026 -114.65304 29960 ft 410 kts 284°
2026-04-23 13:59 32.87668 -114.71778 29964 ft 406 kts 277°
2026-04-23 14:00 32.87985 -114.77311 29971 ft 404 kts 268°
2026-04-23 14:00 32.87728 -114.85110 29971 ft 403 kts 266°
2026-04-23 14:01 32.87509 -114.91774 29971 ft 404 kts 267°
2026-04-23 14:01 32.87338 -114.98442 29978 ft 403 kts 267°
2026-04-23 14:02 32.87179 -115.05115 29982 ft 403 kts 267°
2026-04-23 14:02 32.87028 -115.11785 29980 ft 403 kts 267°
2026-04-23 14:03 32.86869 -115.18439 29914 ft 398 kts 267°
2026-04-23 14:03 32.86793 -115.21651 29690 ft 381 kts 268°
2026-04-23 14:03 32.86718 -115.24766 29483 ft 375 kts 267°
2026-04-23 14:03 32.86643 -115.27866 29131 ft 376 kts 267°
2026-04-23 14:04 32.86565 -115.30982 28681 ft 379 kts 267°
2026-04-23 14:04 32.86414 -115.34115 28188 ft 380 kts 264°
2026-04-23 14:04 32.86073 -115.37236 27701 ft 382 kts 262°
2026-04-23 14:04 32.85646 -115.40373 27210 ft 386 kts 261°
2026-04-23 14:05 32.85189 -115.43526 26717 ft 388 kts 261°
2026-04-23 14:05 32.84727 -115.46703 26218 ft 392 kts 261°
2026-04-23 14:05 32.84239 -115.49905 25716 ft 396 kts 260°
2026-04-23 14:05 32.83728 -115.53087 25221 ft 398 kts 259°
2026-04-23 14:06 32.83189 -115.56377 24681 ft 402 kts 259°
2026-04-23 14:06 32.82659 -115.59604 24154 ft 405 kts 259°
2026-04-23 14:06 32.82117 -115.62905 23614 ft 408 kts 259°
2026-04-23 14:06 32.81575 -115.66231 23071 ft 411 kts 259°
2026-04-23 14:07 32.81030 -115.69570 22524 ft 412 kts 259°
2026-04-23 14:07 32.79936 -115.76258 21428 ft 406 kts 259°
2026-04-23 14:07 32.79398 -115.79532 20923 ft 403 kts 259°
2026-04-23 14:08 32.78869 -115.82752 20380 ft 401 kts 259°
2026-04-23 14:08 32.78419 -115.86003 19974 ft 396 kts 263°
2026-04-23 14:08 32.78105 -115.89257 19332 ft 397 kts 264°
2026-04-23 14:08 32.77854 -115.92502 18745 ft 391 kts 265°
2026-04-23 14:09 32.77628 -115.95706 18193 ft 388 kts 265°
2026-04-23 14:09 32.77406 -115.98888 17648 ft 385 kts 265°
2026-04-23 14:09 32.77182 -116.02044 17133 ft 382 kts 265°
2026-04-23 14:09 32.76955 -116.05185 16621 ft 381 kts 265°
2026-04-23 14:10 32.76723 -116.08309 16110 ft 379 kts 265°
2026-04-23 14:10 32.76491 -116.11419 15599 ft 377 kts 265°
2026-04-23 14:10 32.76259 -116.14508 15099 ft 374 kts 265°
2026-04-23 14:10 32.76028 -116.17577 14730 ft 373 kts 265°
2026-04-23 14:11 32.75873 -116.19620 14588 ft 361 kts 265°
2026-04-23 14:11 32.75655 -116.22484 14473 ft 336 kts 265°
2026-04-23 14:11 32.75452 -116.25143 14376 ft 312 kts 265°
2026-04-23 14:11 32.75256 -116.27692 14127 ft 308 kts 265°
2026-04-23 14:12 32.74992 -116.31028 13560 ft 305 kts 265°
2026-04-23 14:12 32.74860 -116.32718 13241 ft 303 kts 266°
2026-04-23 14:12 32.74665 -116.35206 12796 ft 302 kts 265°
2026-04-23 14:12 32.74470 -116.37690 12362 ft 303 kts 265°
2026-04-23 14:13 32.74276 -116.40177 11922 ft 302 kts 266°
2026-04-23 14:13 32.74084 -116.42657 11499 ft 301 kts 265°
2026-04-23 14:13 32.73892 -116.45125 11225 ft 300 kts 266°
2026-04-23 14:13 32.73702 -116.47556 11100 ft 288 kts 265°
2026-04-23 14:14 32.73515 -116.49849 10852 ft 280 kts 265°
2026-04-23 14:14 32.73299 -116.52177 10443 ft 280 kts 265°
2026-04-23 14:14 32.73082 -116.54429 10082 ft 276 kts 264°
2026-04-23 14:14 32.72863 -116.56688 9646 ft 275 kts 264°
2026-04-23 14:15 32.72648 -116.58935 9233 ft 273 kts 264°
2026-04-23 14:15 32.72432 -116.61175 8864 ft 275 kts 264°
2026-04-23 14:15 32.72214 -116.63434 8485 ft 275 kts 264°
2026-04-23 14:15 32.72004 -116.65677 8130 ft 272 kts 265°
2026-04-23 14:16 32.71819 -116.67906 7750 ft 274 kts 265°
2026-04-23 14:16 32.71640 -116.70164 7300 ft 272 kts 265°
2026-04-23 14:16 32.71465 -116.72382 6923 ft 268 kts 265°
2026-04-23 14:16 32.71293 -116.74571 6542 ft 265 kts 265°
2026-04-23 14:17 32.71123 -116.76744 6174 ft 264 kts 265°
2026-04-23 14:17 32.70954 -116.78895 6005 ft 260 kts 265°
2026-04-23 14:17 32.70753 -116.81035 5981 ft 262 kts 260°
2026-04-23 14:17 32.70276 -116.83112 5898 ft 259 kts 253°
2026-04-23 14:18 32.69689 -116.85110 5574 ft 253 kts 252°
2026-04-23 14:18 32.69090 -116.87054 5250 ft 248 kts 251°
2026-04-23 14:18 32.68518 -116.88953 5009 ft 239 kts 252°
2026-04-23 14:18 32.67978 -116.90770 4659 ft 228 kts 252°
2026-04-23 14:19 32.67490 -116.92514 4260 ft 217 kts 259°
2026-04-23 14:19 32.67481 -116.94214 3941 ft 198 kts 283°
2026-04-23 14:19 32.67792 -116.95768 3626 ft 188 kts 286°
2026-04-23 14:19 32.68127 -116.97261 3597 ft 189 kts 287°
2026-04-23 14:20 32.68475 -116.98769 3442 ft 192 kts 287°
2026-04-23 14:20 32.68827 -117.00280 3046 ft 187 kts 287°
2026-04-23 14:20 32.69175 -117.01757 2743 ft 184 kts 286°
2026-04-23 14:20 32.69520 -117.03206 2691 ft 181 kts 286°
2026-04-23 14:21 32.69840 -117.04548 2628 ft 164 kts 285°
2026-04-23 14:21 32.70157 -117.05861 2343 ft 164 kts 285°
2026-04-23 14:21 32.70470 -117.07164 2034 ft 164 kts 284°
2026-04-23 14:21 32.70783 -117.08464 1993 ft 167 kts 284°
2026-04-23 14:22 32.71106 -117.09809 1783 ft 170 kts 285°
2026-04-23 14:22 32.71426 -117.11139 1472 ft 167 kts 285°
2026-04-23 14:22 32.71745 -117.12466 1160 ft 167 kts 285°
2026-04-23 14:22 32.72061 -117.13772 917 ft 166 kts 286°
2026-04-23 14:23 32.72388 -117.15070 667 ft 163 kts 287°
2026-04-23 14:23 32.72715 -117.16358 468 ft 163 kts 286°
2026-04-23 14:23 32.73032 -117.17652 158 ft 162 kts 286°
2026-04-23 14:23 32.73339 -117.18901 30 ft 143 kts 287°
2026-04-23 14:24 32.73511 -117.19604 32 ft 53 kts 286°
2026-04-23 14:24 32.73487 -117.19860 32 ft 10 kts 198°
2026-04-23 14:24 32.73466 -117.19851 31 ft 1 kts 130°
2026-04-23 14:24 32.73464 -117.19836 31 ft 5 kts 107°
2026-04-23 14:25 32.73451 -117.19784 31 ft 8 kts 105°
2026-04-23 14:25 32.73435 -117.19708 31 ft 13 kts 104°
2026-04-23 14:25 32.73401 -117.19568 31 ft 21 kts 107°
2026-04-23 14:25 32.73360 -117.19406 28 ft 20 kts 105°
2026-04-23 14:26 32.73322 -117.19244 27 ft 20 kts 105°
2026-04-23 14:26 32.73285 -117.19094 28 ft 17 kts 105°
2026-04-23 14:26 32.73253 -117.18965 29 ft 16 kts 106°
2026-04-23 14:26 32.73224 -117.18845 30 ft 14 kts 106°
2026-04-23 14:27 32.73199 -117.18738 31 ft 13 kts 105°
2026-04-23 14:27 32.73175 -117.18637 31 ft 13 kts 105°
2026-04-23 14:27 32.73150 -117.18528 28 ft 14 kts 100°
2026-04-23 14:27 32.73193 -117.18463 28 ft 10 kts 18°
2026-04-23 14:28 32.73254 -117.18444 29 ft 8 kts 15°
2026-04-23 14:28 32.73306 -117.18426 29 ft 7 kts 17°
2026-04-23 14:28 32.73352 -117.18410 29 ft 7 kts 17°
2026-04-23 14:28 32.73398 -117.18393 29 ft 7 kts 17°
2026-04-23 14:29 32.73445 -117.18392 28 ft 8 kts 348°
2026-04-23 14:29 32.73468 -117.18410 29 ft 4 kts 320°
2026-04-23 14:29 32.73494 -117.18412 29 ft 2 kts 30°
2026-04-23 14:29 32.73497 -117.18401 29 ft 2 kts 66°
2026-04-23 14:30 32.73516 -117.18368 29 ft 0 kts 55°